Location: Narrabri
(30.3170°S, 149.7830°E)
Time: 05:43:59
(UTC+10:00)

Vanguard 2 - All Passes

Search period start: 22 July 2018 00:00
Search period end: 01 August 2018 00:00
Orbit: 553 x 2939 km, 32.9° (Epoch: 21 July)

Date Brightness Start Highest point End Pass type
(mag) Time Alt. Az. Time Alt. Az. Time Alt. Az.
22 Jul - 02:33:01 10° N 02:38:29 16° NNE 02:42:46 10° ENE visible
22 Jul - 04:40:44 10° NW 04:47:57 45° NNE 04:52:40 10° E visible
22 Jul - 06:51:08 10° W 06:56:25 73° S 07:00:29 10° ESE daylight
22 Jul - 09:00:44 10° WSW 09:04:48 70° S 09:09:01 10° E daylight
22 Jul - 11:09:00 10° W 11:12:57 40° NNW 11:18:12 10° NE daylight
22 Jul - 13:19:53 10° NW 13:21:50 11° NNW 13:24:01 10° N daylight
23 Jul - 02:49:16 10° NNW 02:56:49 24° NNE 03:02:07 10° ENE visible
23 Jul - 04:58:40 10° WNW 05:06:05 62° NNE 05:10:51 10° E visible
23 Jul - 07:09:28 10° W 07:14:34 64° S 07:18:34 10° ESE daylight
23 Jul - 09:18:51 10° WSW 09:22:55 88° SSE 09:27:13 10° ENE daylight
23 Jul - 11:27:25 10° W 11:31:03 26° NNW 11:35:43 10° NNE daylight
24 Jul - 01:01:25 10° NNE 01:04:44 11° NNE 01:07:41 10° NE night (unlit)
24 Jul - 03:06:19 10° NW 03:15:07 33° NNE 03:20:50 10° E visible
24 Jul - 05:16:51 10° WNW 05:24:12 81° NNE 05:28:56 10° ESE visible
24 Jul - 07:27:49 10° W 07:32:44 61° S 07:36:43 10° E daylight
24 Jul - 09:37:00 10° W 09:40:59 67° NNW 09:45:19 10° ENE daylight
24 Jul - 11:46:16 10° WNW 11:49:10 17° NNW 11:52:40 10° NNE daylight
25 Jul - 01:15:43 10° N 01:23:10 18° NNE 01:28:53 10° ENE night (unlit)
25 Jul - 03:23:49 10° NW 03:33:20 45° NNE 03:39:13 10° E visible
25 Jul - 05:35:11 10° W 05:42:20 83° SSW 05:46:59 10° ESE visible
25 Jul - 07:46:06 10° WSW 07:50:55 66° S 07:54:52 10° E daylight
25 Jul - 09:55:12 10° W 09:59:01 44° NNW 10:03:13 10° NE daylight
26 Jul - 01:31:52 10° NNW 01:41:33 26° NNE 01:48:19 10° E night (unlit)
26 Jul - 03:41:42 10° NW 03:51:32 60° NNE 03:57:25 10° E visible
26 Jul - 05:53:36 10° W 06:00:30 72° S 06:05:03 10° ESE visible
26 Jul - 08:04:20 10° WSW 08:09:03 78° S 08:13:01 10° E daylight
26 Jul - 10:13:34 10° W 10:17:01 28° NNW 10:20:50 10° NE daylight
26 Jul - 23:44:00 10° NNE 23:48:49 12° NNE 23:53:03 10° NE night (unlit)
27 Jul - 01:48:46 10° NNW 01:59:53 35° NNE 02:07:07 10° E visible
27 Jul - 03:59:50 10° WNW 04:09:42 75° NNE 04:15:31 10° ESE visible
27 Jul - 06:12:03 10° W 06:18:41 67° S 06:23:08 10° E visible
27 Jul - 08:22:32 10° WSW 08:27:10 80° NNW 08:31:07 10° ENE daylight
27 Jul - 10:32:20 10° WNW 10:35:01 17° NNW 10:37:56 10° NNE daylight
27 Jul - 23:58:12 10° N 00:07:16 19° NNE 00:14:24 10° ENE night (unlit)
28 Jul - 02:06:09 10° NW 02:18:09 46° NNE 02:25:34 10° E visible
28 Jul - 04:18:12 10° WNW 04:27:52 90° N 04:33:35 10° ESE visible
28 Jul - 06:30:29 10° W 06:36:53 67° S 06:41:14 10° E daylight
28 Jul - 08:40:47 10° W 08:45:12 55° NNW 08:49:05 10° NE daylight
29 Jul - 00:14:09 10° NNW 00:25:39 26° NNE 00:34:01 10° E night (unlit)
29 Jul - 02:23:55 10° NW 02:36:24 58° NNE 02:43:50 10° E visible
29 Jul - 04:36:40 10° W 04:46:04 79° S 04:51:39 10° ESE visible
29 Jul - 06:48:51 10° WSW 06:55:05 74° S 06:59:22 10° E daylight
29 Jul - 08:59:08 10° W 09:03:09 35° NNW 09:06:48 10° NE daylight
29 Jul - 22:27:27 10° NNE 22:32:23 12° NE 22:36:55 10° NE visible
30 Jul - 00:30:52 10° NNW 00:44:00 35° NNE 00:52:58 10° E night (unlit)
30 Jul - 02:42:00 10° WNW 02:54:37 71° NNE 03:01:58 10° ESE visible
30 Jul - 04:55:14 10° W 05:04:18 73° S 05:09:43 10° E visible
30 Jul - 07:07:11 10° WSW 07:13:14 89° SSE 07:17:28 10° ENE daylight
30 Jul - 09:17:45 10° W 09:21:02 21° NNW 09:24:07 10° NNE daylight
30 Jul - 22:40:58 10° N 22:50:49 18° NE 22:59:02 10° ENE visible
31 Jul - 00:48:05 10° NW 01:02:17 45° NNE 01:11:32 10° E night (unlit)
31 Jul - 03:00:19 10° WNW 03:12:51 84° NNE 03:20:04 10° ESE visible
31 Jul - 05:13:48 10° W 05:22:32 71° S 05:27:49 10° E visible
31 Jul - 07:25:30 10° WSW 07:31:19 70° NNW 07:35:27 10° ENE daylight
31 Jul - 09:37:07 10° WNW 09:38:52 12° NW 09:40:36 10° N daylight
31 Jul - 22:56:35 10° NNW 23:09:09 26° NNE 23:19:01 10° E visible
